Year,Month,Day,Hour,Minute,Value (Times are PST for temperature in C)
2015,07,16,00,00,16.70
2015,07,16,00,01,16.70
2015,07,16,00,02,16.70
2015,07,16,00,03,16.70
2015,07,16,00,04,16.60
2015,07,16,00,05,16.60
2015,07,16,00,06,16.60
2015,07,16,00,07,16.60
2015,07,16,00,08,16.60
2015,07,16,00,10,16.60
2015,07,16,00,11,16.60
2015,07,16,00,13,16.50
2015,07,16,00,14,16.50
2015,07,16,00,15,16.50
2015,07,16,00,16,16.50
2015,07,16,00,17,16.50
2015,07,16,00,18,16.50
2015,07,16,00,19,16.50
2015,07,16,00,22,16.50
2015,07,16,00,23,16.60
2015,07,16,00,24,16.60
2015,07,16,00,25,16.50
2015,07,16,00,26,16.50
2015,07,16,00,27,16.50
2015,07,16,00,28,16.60
2015,07,16,00,29,16.60
2015,07,16,00,30,16.60
2015,07,16,00,32,16.60
2015,07,16,00,33,16.60
2015,07,16,00,34,16.60
2015,07,16,00,35,16.60
2015,07,16,00,36,16.60
2015,07,16,00,37,16.60
2015,07,16,00,38,16.60
2015,07,16,00,39,16.60
2015,07,16,00,40,16.60
2015,07,16,00,41,16.60
2015,07,16,00,42,16.60
2015,07,16,00,43,16.60
2015,07,16,00,44,16.60
2015,07,16,00,45,16.60
2015,07,16,00,46,16.60
2015,07,16,00,47,16.60
2015,07,16,00,48,16.60
2015,07,16,00,49,16.60
2015,07,16,00,50,16.60
2015,07,16,00,51,16.60
2015,07,16,00,52,16.60
2015,07,16,00,53,16.60
2015,07,16,00,54,16.60
2015,07,16,00,55,16.60
2015,07,16,00,56,16.60
2015,07,16,00,57,16.60
2015,07,16,00,58,16.60
2015,07,16,01,00,16.60
2015,07,16,01,01,16.60
2015,07,16,01,02,16.60
2015,07,16,01,03,16.60
2015,07,16,01,04,16.60
2015,07,16,01,05,16.60
2015,07,16,01,07,16.60
2015,07,16,01,08,16.60
2015,07,16,01,09,16.60
2015,07,16,01,10,16.50
2015,07,16,01,11,16.50
2015,07,16,01,12,16.50
2015,07,16,01,13,16.50
2015,07,16,01,15,16.40
2015,07,16,01,16,16.40
2015,07,16,01,17,16.40
2015,07,16,01,18,16.40
2015,07,16,01,19,16.40
2015,07,16,01,20,16.40
2015,07,16,01,21,16.40
2015,07,16,01,22,16.40
2015,07,16,01,23,16.40
2015,07,16,01,24,16.30
2015,07,16,01,25,16.30
2015,07,16,01,26,16.30
2015,07,16,01,27,16.30
2015,07,16,01,28,16.30
2015,07,16,01,29,16.30
2015,07,16,01,30,16.30
2015,07,16,01,31,16.30
2015,07,16,01,32,16.30
2015,07,16,01,33,16.30
2015,07,16,01,34,16.30
2015,07,16,01,35,16.30
2015,07,16,01,36,16.30
2015,07,16,01,37,16.30
2015,07,16,01,38,16.30
2015,07,16,01,39,16.30
2015,07,16,01,40,16.30
2015,07,16,01,41,16.30
2015,07,16,01,42,16.30
2015,07,16,01,43,16.20
2015,07,16,01,44,16.20
2015,07,16,01,45,16.20
2015,07,16,01,46,16.20
2015,07,16,01,47,16.10
2015,07,16,01,48,16.10
2015,07,16,01,49,16.10
2015,07,16,01,50,16.10
2015,07,16,01,51,16.00
2015,07,16,01,52,15.90
2015,07,16,01,53,15.90
2015,07,16,01,54,15.90
2015,07,16,01,55,15.90
2015,07,16,01,56,15.90
2015,07,16,01,58,15.80
2015,07,16,01,59,15.80
2015,07,16,02,00,15.80
2015,07,16,02,01,15.70
2015,07,16,02,02,15.70
2015,07,16,02,03,15.70
2015,07,16,02,04,15.70
2015,07,16,02,06,15.60
2015,07,16,02,07,15.60
2015,07,16,02,08,15.60
2015,07,16,02,09,15.50
2015,07,16,02,10,15.50
2015,07,16,02,11,15.50
2015,07,16,02,12,15.40
2015,07,16,02,13,15.40
2015,07,16,02,14,15.40
2015,07,16,02,15,15.40
2015,07,16,02,16,15.40
2015,07,16,02,17,15.30
2015,07,16,02,18,15.30
2015,07,16,02,19,15.30
2015,07,16,02,20,15.30
2015,07,16,02,21,15.30
2015,07,16,02,22,15.30
2015,07,16,02,25,15.20
2015,07,16,02,26,15.20
2015,07,16,02,27,15.20
2015,07,16,02,28,15.20
2015,07,16,02,29,15.20
2015,07,16,02,30,15.20
2015,07,16,02,31,15.20
2015,07,16,02,32,15.10
2015,07,16,02,33,15.10
2015,07,16,02,34,15.10
2015,07,16,02,35,15.10
2015,07,16,02,36,15.10
2015,07,16,02,37,15.10
2015,07,16,02,38,15.10
2015,07,16,02,39,15.10
2015,07,16,02,40,15.00
2015,07,16,02,41,15.00
2015,07,16,02,42,15.00
2015,07,16,02,43,14.90
2015,07,16,02,44,14.90
2015,07,16,02,45,14.90
2015,07,16,02,46,14.90
2015,07,16,02,47,14.90
2015,07,16,02,48,14.90
2015,07,16,02,49,14.80
2015,07,16,02,50,14.80
2015,07,16,02,51,14.80
2015,07,16,02,52,14.80
2015,07,16,02,53,14.80
2015,07,16,02,54,14.80
2015,07,16,02,55,14.80
2015,07,16,02,56,14.80
2015,07,16,02,57,14.80
2015,07,16,02,58,14.80
2015,07,16,02,59,14.70
2015,07,16,03,00,14.70
2015,07,16,03,02,14.70
2015,07,16,03,03,14.70
2015,07,16,03,04,14.70
2015,07,16,03,05,14.70
2015,07,16,03,06,14.70
2015,07,16,03,07,14.60
2015,07,16,03,08,14.60
2015,07,16,03,09,14.60
2015,07,16,03,10,14.60
2015,07,16,03,11,14.60
2015,07,16,03,12,14.60
2015,07,16,03,13,14.60
2015,07,16,03,14,14.60
2015,07,16,03,15,14.60
2015,07,16,03,16,14.50
2015,07,16,03,18,14.50
2015,07,16,03,19,14.50
2015,07,16,03,20,14.40
2015,07,16,03,21,14.40
2015,07,16,03,22,14.40
2015,07,16,03,23,14.40
2015,07,16,03,24,14.40
2015,07,16,03,26,14.40
2015,07,16,03,27,14.40
2015,07,16,03,28,14.40
2015,07,16,03,29,14.40
2015,07,16,03,30,14.40
2015,07,16,03,31,14.30
2015,07,16,03,32,14.30
2015,07,16,03,33,14.30
2015,07,16,03,34,14.30
2015,07,16,03,35,14.30
2015,07,16,03,36,14.30
2015,07,16,03,37,14.30
2015,07,16,03,38,14.20
2015,07,16,03,41,14.20
2015,07,16,03,42,14.20
2015,07,16,03,44,14.20
2015,07,16,03,45,14.20
2015,07,16,03,46,14.20
2015,07,16,03,48,14.20
2015,07,16,03,49,14.20
2015,07,16,03,50,14.20
2015,07,16,03,51,14.20
2015,07,16,03,52,14.20
2015,07,16,03,53,14.20
2015,07,16,03,54,14.20
2015,07,16,03,55,14.20
2015,07,16,03,56,14.20
2015,07,16,03,57,14.20
2015,07,16,03,58,14.20
2015,07,16,03,59,14.20
2015,07,16,04,01,14.20
2015,07,16,04,03,14.20
2015,07,16,04,04,14.20
2015,07,16,04,05,14.20
2015,07,16,04,06,14.20
2015,07,16,04,07,14.20
2015,07,16,04,09,14.10
2015,07,16,04,10,14.10
2015,07,16,04,11,14.10
2015,07,16,04,13,14.10
2015,07,16,04,14,14.10
2015,07,16,04,15,14.10
2015,07,16,04,16,14.10
2015,07,16,04,17,14.10
2015,07,16,04,18,14.10
2015,07,16,04,19,14.10
2015,07,16,04,20,14.10
2015,07,16,04,21,14.10
2015,07,16,04,22,14.10
2015,07,16,04,23,14.10
2015,07,16,04,24,14.10
2015,07,16,04,25,14.10
2015,07,16,04,26,14.10
2015,07,16,04,27,14.10
2015,07,16,04,28,14.10
2015,07,16,04,30,14.10
2015,07,16,04,31,14.10
2015,07,16,04,32,14.10
2015,07,16,04,33,14.10
2015,07,16,04,34,14.00
2015,07,16,04,35,14.00
2015,07,16,04,36,14.00
2015,07,16,04,38,14.00
2015,07,16,04,39,14.00
2015,07,16,04,40,14.00
2015,07,16,04,41,14.00
2015,07,16,04,42,13.90
2015,07,16,04,43,13.90
2015,07,16,04,45,13.90
2015,07,16,04,46,13.90
2015,07,16,04,47,13.90
2015,07,16,04,48,13.90
2015,07,16,04,51,13.80
2015,07,16,04,52,13.80
2015,07,16,04,53,13.80
2015,07,16,04,55,13.80
2015,07,16,04,56,13.80
2015,07,16,04,57,13.80
2015,07,16,04,58,13.80
2015,07,16,04,59,13.80
2015,07,16,05,00,13.80
2015,07,16,05,01,13.70
2015,07,16,05,02,13.80
2015,07,16,05,03,13.70
2015,07,16,05,04,13.70
2015,07,16,05,05,13.70
2015,07,16,05,06,13.70
2015,07,16,05,08,13.70
2015,07,16,05,09,13.70
2015,07,16,05,11,13.70
2015,07,16,05,13,13.70
2015,07,16,05,14,13.70
2015,07,16,05,15,13.70
2015,07,16,05,17,13.60
2015,07,16,05,18,13.60
2015,07,16,05,19,13.60
2015,07,16,05,21,13.60
2015,07,16,05,22,13.60
2015,07,16,05,23,13.60
2015,07,16,05,24,13.50
2015,07,16,05,25,13.50
2015,07,16,05,26,13.50
2015,07,16,05,27,13.40
2015,07,16,05,28,13.40
2015,07,16,05,29,13.40
2015,07,16,05,30,13.40
2015,07,16,05,32,13.40
2015,07,16,05,33,13.30
2015,07,16,05,34,13.30
2015,07,16,05,35,13.30
2015,07,16,05,36,13.30
2015,07,16,05,38,13.30
2015,07,16,05,39,13.30
2015,07,16,05,40,13.30
2015,07,16,05,41,13.30
2015,07,16,05,42,13.20
2015,07,16,05,43,13.20
2015,07,16,05,44,13.20
2015,07,16,05,45,13.20
2015,07,16,05,46,13.20
2015,07,16,05,47,13.20
2015,07,16,05,49,13.20
2015,07,16,05,50,13.20
2015,07,16,05,51,13.20
2015,07,16,05,52,13.20
2015,07,16,05,53,13.20
2015,07,16,05,54,13.20
2015,07,16,05,55,13.20
2015,07,16,05,56,13.20
2015,07,16,05,58,13.20
2015,07,16,05,59,13.20
2015,07,16,06,00,13.20
2015,07,16,06,01,13.20
2015,07,16,06,02,13.20
2015,07,16,06,03,13.20
2015,07,16,06,04,13.20
2015,07,16,06,05,13.20
2015,07,16,06,07,13.20
2015,07,16,06,08,13.20
2015,07,16,06,09,13.20
2015,07,16,06,10,13.20
2015,07,16,06,11,13.20
2015,07,16,06,12,13.20
2015,07,16,06,13,13.20
2015,07,16,06,14,13.20
2015,07,16,06,15,13.20
2015,07,16,06,16,13.20
2015,07,16,06,17,13.20
2015,07,16,06,18,13.20
2015,07,16,06,20,13.20
2015,07,16,06,21,13.20
2015,07,16,06,24,13.20
2015,07,16,06,25,13.20
2015,07,16,06,26,13.20
2015,07,16,06,27,13.20
2015,07,16,06,28,13.20
2015,07,16,06,29,13.20
2015,07,16,06,31,13.20
2015,07,16,06,32,13.20
2015,07,16,06,33,13.20
2015,07,16,06,34,13.30
2015,07,16,06,35,13.30
2015,07,16,06,36,13.30
2015,07,16,06,38,13.30
2015,07,16,06,44,13.40
2015,07,16,06,46,13.40
2015,07,16,06,48,13.50
2015,07,16,06,51,13.60
2015,07,16,06,52,13.60
2015,07,16,06,53,13.60
2015,07,16,06,54,13.60
2015,07,16,06,57,13.70
2015,07,16,06,58,13.70
2015,07,16,06,59,13.80
2015,07,16,07,00,13.80
2015,07,16,07,01,13.80
2015,07,16,07,02,13.90
2015,07,16,07,04,14.00
2015,07,16,07,05,14.10
2015,07,16,07,06,14.10
2015,07,16,07,08,14.20
2015,07,16,07,10,14.20
2015,07,16,07,11,14.30
2015,07,16,07,12,14.30
2015,07,16,07,13,14.30
2015,07,16,07,15,14.30
2015,07,16,07,16,14.30
2015,07,16,07,18,14.30
2015,07,16,07,19,14.40
2015,07,16,07,20,14.40
2015,07,16,07,21,14.40
2015,07,16,07,23,14.40
2015,07,16,07,24,14.50
2015,07,16,07,25,14.50
2015,07,16,07,26,14.50
2015,07,16,07,27,14.60
2015,07,16,07,28,14.60
2015,07,16,07,29,14.60
2015,07,16,07,31,14.60
2015,07,16,07,32,14.60
2015,07,16,07,33,14.60
2015,07,16,07,34,14.70
2015,07,16,07,35,14.70
2015,07,16,07,36,14.70
2015,07,16,07,37,14.70
2015,07,16,07,38,14.70
2015,07,16,07,39,14.80
2015,07,16,07,40,14.80
2015,07,16,07,43,14.90
2015,07,16,07,44,14.90
2015,07,16,07,45,15.00
2015,07,16,07,46,15.10
2015,07,16,07,48,15.10
2015,07,16,07,49,15.20
2015,07,16,07,50,15.20
2015,07,16,07,51,15.30
2015,07,16,07,52,15.30
2015,07,16,07,53,15.40
2015,07,16,07,54,15.40
2015,07,16,07,55,15.50
2015,07,16,07,56,15.60
2015,07,16,07,57,15.60
2015,07,16,07,58,15.70
2015,07,16,07,59,15.70
2015,07,16,08,00,15.70
2015,07,16,08,01,15.70
2015,07,16,08,02,15.70
2015,07,16,08,04,15.80
2015,07,16,08,05,15.80
2015,07,16,08,06,15.80
2015,07,16,08,08,15.90
2015,07,16,08,09,16.00
2015,07,16,08,10,16.10
2015,07,16,08,11,16.20
2015,07,16,08,12,16.20
2015,07,16,08,13,16.30
2015,07,16,08,16,16.40
2015,07,16,08,18,16.40
2015,07,16,08,20,16.40
2015,07,16,08,21,16.50
2015,07,16,08,22,16.50
2015,07,16,08,25,16.60
2015,07,16,08,26,16.60
2015,07,16,08,27,16.60
2015,07,16,08,28,16.60
2015,07,16,08,29,16.60
2015,07,16,08,31,16.70
2015,07,16,08,34,16.70
2015,07,16,08,35,16.70
2015,07,16,08,36,16.70
2015,07,16,08,37,16.70
2015,07,16,08,38,16.70
2015,07,16,08,40,16.70
2015,07,16,08,42,16.70
2015,07,16,08,43,16.80
2015,07,16,08,44,16.80
2015,07,16,08,45,16.80
2015,07,16,08,46,16.80
2015,07,16,08,48,16.90
2015,07,16,08,50,17.10
2015,07,16,08,51,17.10
2015,07,16,08,52,17.20
2015,07,16,08,53,17.20
2015,07,16,08,56,17.40
2015,07,16,08,57,17.50
2015,07,16,08,58,17.60
2015,07,16,08,59,17.60
2015,07,16,09,00,17.70
2015,07,16,09,01,17.70
2015,07,16,09,02,17.80
2015,07,16,09,03,17.80
2015,07,16,09,04,17.90
2015,07,16,09,05,17.90
2015,07,16,09,06,18.10
2015,07,16,09,07,18.10
2015,07,16,09,08,18.20
2015,07,16,09,10,18.30
2015,07,16,09,11,18.40
2015,07,16,09,12,18.40
2015,07,16,09,13,18.50
2015,07,16,09,14,18.50
2015,07,16,09,15,18.60
2015,07,16,09,16,18.60
2015,07,16,09,17,18.70
2015,07,16,09,18,18.70
2015,07,16,09,19,18.70
2015,07,16,09,20,18.70
2015,07,16,09,21,18.70
2015,07,16,09,22,18.70
2015,07,16,09,23,18.70
2015,07,16,09,27,18.80
2015,07,16,09,28,18.90
2015,07,16,09,29,19.00
2015,07,16,09,31,19.20
2015,07,16,09,32,19.30
2015,07,16,09,33,19.30
2015,07,16,09,35,19.40
2015,07,16,09,36,19.40
2015,07,16,09,37,19.50
2015,07,16,09,40,19.70
2015,07,16,09,41,19.80
2015,07,16,09,42,19.80
2015,07,16,09,44,19.90
2015,07,16,09,45,20.00
2015,07,16,09,46,20.10
2015,07,16,09,48,20.20
2015,07,16,09,49,20.20
2015,07,16,09,50,20.30
2015,07,16,09,52,20.30
2015,07,16,09,53,20.40
2015,07,16,09,56,20.60
2015,07,16,09,57,20.50
2015,07,16,09,58,20.50
2015,07,16,09,59,20.50
2015,07,16,10,00,20.40
2015,07,16,10,01,20.30
2015,07,16,10,02,20.30
2015,07,16,10,04,20.30
2015,07,16,10,05,20.40
2015,07,16,10,06,20.40
2015,07,16,10,07,20.40
2015,07,16,10,08,20.40
2015,07,16,10,09,20.40
2015,07,16,10,10,20.40
2015,07,16,10,11,20.40
2015,07,16,10,12,20.40
2015,07,16,10,13,20.40
2015,07,16,10,15,20.50
2015,07,16,10,16,20.60
2015,07,16,10,18,20.70
2015,07,16,10,19,20.80
2015,07,16,10,20,20.80
2015,07,16,10,21,20.90
2015,07,16,10,22,20.90
2015,07,16,10,24,20.90
2015,07,16,10,25,20.90
2015,07,16,10,26,20.80
2015,07,16,10,28,20.80
2015,07,16,10,29,20.80
2015,07,16,10,30,20.90
2015,07,16,10,31,20.90
2015,07,16,10,32,20.90
2015,07,16,10,33,20.90
2015,07,16,10,34,21.00
2015,07,16,10,35,21.00
2015,07,16,10,38,21.00
2015,07,16,10,40,21.10
2015,07,16,10,41,21.10
2015,07,16,10,43,21.20
2015,07,16,10,46,21.40
2015,07,16,10,47,21.60
2015,07,16,10,49,21.70
2015,07,16,10,50,21.80
2015,07,16,10,51,21.80
2015,07,16,10,52,21.80
2015,07,16,10,53,21.80
2015,07,16,10,54,21.80
2015,07,16,10,55,21.80
2015,07,16,10,56,21.80
2015,07,16,10,57,21.70
2015,07,16,10,58,21.70
2015,07,16,10,59,21.70
2015,07,16,11,00,21.70
2015,07,16,11,01,21.70
2015,07,16,11,03,21.70
2015,07,16,11,04,21.70
2015,07,16,11,05,21.80
2015,07,16,11,06,21.90
2015,07,16,11,07,21.90
2015,07,16,11,08,22.10
2015,07,16,11,09,22.10
2015,07,16,11,12,22.30
2015,07,16,11,13,22.30
2015,07,16,11,15,22.40
2015,07,16,11,16,22.40
2015,07,16,11,17,22.40
2015,07,16,11,18,22.40
2015,07,16,11,19,22.50
2015,07,16,11,20,22.60
2015,07,16,11,21,22.60
2015,07,16,11,22,22.70
2015,07,16,11,23,22.70
2015,07,16,11,24,22.80
2015,07,16,11,25,22.80
2015,07,16,11,27,22.90
2015,07,16,11,28,23.00
2015,07,16,11,29,23.10
2015,07,16,11,30,23.20
2015,07,16,11,31,23.20
2015,07,16,11,32,23.20
2015,07,16,11,33,23.20
2015,07,16,11,35,23.20
2015,07,16,11,36,23.20
2015,07,16,11,38,23.20
2015,07,16,11,39,23.20
2015,07,16,11,40,23.30
2015,07,16,11,41,23.30
2015,07,16,11,42,23.30
2015,07,16,11,43,23.30
2015,07,16,11,44,23.30
2015,07,16,11,45,23.30
2015,07,16,11,47,23.30
2015,07,16,11,49,23.40
2015,07,16,11,50,23.40
2015,07,16,11,51,23.40
2015,07,16,11,52,23.40
2015,07,16,11,53,23.40
2015,07,16,11,57,23.40
2015,07,16,11,58,23.40
2015,07,16,11,59,23.40
2015,07,16,12,01,23.40
2015,07,16,12,04,23.50
2015,07,16,12,05,23.60
2015,07,16,12,06,23.60
2015,07,16,12,07,23.60
2015,07,16,12,08,23.60
2015,07,16,12,09,23.70
2015,07,16,12,10,23.70
2015,07,16,12,11,23.80
2015,07,16,12,13,24.00
2015,07,16,12,14,24.10
2015,07,16,12,15,24.20
2015,07,16,12,16,24.20
2015,07,16,12,17,24.20
2015,07,16,12,18,24.20
2015,07,16,12,19,24.20
2015,07,16,12,20,24.30
2015,07,16,12,21,24.30
2015,07,16,12,22,24.30
2015,07,16,12,24,24.40
2015,07,16,12,26,24.60
2015,07,16,12,27,24.60
2015,07,16,12,28,24.70
2015,07,16,12,29,24.70
2015,07,16,12,30,24.70
2015,07,16,12,32,24.70
2015,07,16,12,33,24.70
2015,07,16,12,36,24.60
2015,07,16,12,37,24.60
2015,07,16,12,38,24.50
2015,07,16,12,39,24.50
2015,07,16,12,41,24.60
2015,07,16,12,44,24.80
2015,07,16,12,45,24.80
2015,07,16,12,46,24.80
2015,07,16,12,47,24.90
2015,07,16,12,48,24.90
2015,07,16,12,49,24.90
2015,07,16,12,50,25.00
2015,07,16,12,51,25.10
2015,07,16,12,53,25.10
2015,07,16,12,54,25.10
2015,07,16,12,55,25.10
2015,07,16,12,59,25.20
2015,07,16,13,00,25.30
2015,07,16,13,01,25.30
2015,07,16,13,04,25.40
2015,07,16,13,06,25.40
2015,07,16,13,07,25.40
2015,07,16,13,09,25.50
2015,07,16,13,10,25.60
2015,07,16,13,11,25.60
2015,07,16,13,12,25.70
2015,07,16,13,13,25.70
2015,07,16,13,16,25.80
2015,07,16,13,18,25.90
2015,07,16,13,19,25.90
2015,07,16,13,20,25.90
2015,07,16,13,21,25.80
2015,07,16,13,22,25.80
2015,07,16,13,23,25.70
2015,07,16,13,24,25.70
2015,07,16,13,28,25.80
2015,07,16,13,29,25.80
2015,07,16,13,30,25.80
2015,07,16,13,31,25.80
2015,07,16,13,32,25.70
2015,07,16,13,33,25.70
2015,07,16,13,34,25.60
2015,07,16,13,35,25.60
2015,07,16,13,38,25.60
2015,07,16,13,39,25.60
2015,07,16,13,40,25.60
2015,07,16,13,41,25.60
2015,07,16,13,42,25.60
2015,07,16,13,43,25.60
2015,07,16,13,45,25.60
2015,07,16,13,46,25.60
2015,07,16,13,47,25.60
2015,07,16,13,48,25.70
2015,07,16,13,49,25.70
2015,07,16,13,50,25.70
2015,07,16,13,53,25.70
2015,07,16,13,54,25.70
2015,07,16,13,56,25.60
2015,07,16,13,58,25.60
2015,07,16,13,59,25.60
2015,07,16,14,00,25.60
2015,07,16,14,01,25.60
2015,07,16,14,02,25.60
2015,07,16,14,03,25.60
2015,07,16,14,04,25.60
2015,07,16,14,06,25.60
2015,07,16,14,07,25.60
2015,07,16,14,08,25.70
2015,07,16,14,09,25.80
2015,07,16,14,11,25.90
2015,07,16,14,12,26.00
2015,07,16,14,13,26.10
2015,07,16,14,14,26.10
2015,07,16,14,15,26.10
2015,07,16,14,16,26.10
2015,07,16,14,17,26.10
2015,07,16,14,18,26.10
2015,07,16,14,22,25.90
2015,07,16,14,23,26.00
2015,07,16,14,25,26.10
2015,07,16,14,26,26.10
2015,07,16,14,28,26.20
2015,07,16,14,30,26.20
2015,07,16,14,31,26.20
2015,07,16,14,32,26.20
2015,07,16,14,33,26.20
2015,07,16,14,34,26.20
2015,07,16,14,37,26.20
2015,07,16,14,38,26.20
2015,07,16,14,39,26.20
2015,07,16,14,40,26.20
2015,07,16,14,43,26.20
2015,07,16,14,44,26.20
2015,07,16,14,45,26.20
2015,07,16,14,48,26.20
2015,07,16,14,49,26.20
2015,07,16,14,51,26.10
2015,07,16,14,52,26.00
2015,07,16,14,53,26.00
2015,07,16,14,57,25.90
2015,07,16,14,58,25.90
2015,07,16,15,00,26.10
2015,07,16,15,01,26.10
2015,07,16,15,02,26.10
2015,07,16,15,03,26.10
2015,07,16,15,05,26.00
2015,07,16,15,06,26.00
2015,07,16,15,07,26.10
2015,07,16,15,09,26.10
2015,07,16,15,10,26.10
2015,07,16,15,12,25.90
2015,07,16,15,13,25.90
2015,07,16,15,14,25.90
2015,07,16,15,16,26.10
2015,07,16,15,17,26.10
2015,07,16,15,18,26.10
2015,07,16,15,20,26.20
2015,07,16,15,23,26.20
2015,07,16,15,25,26.30
2015,07,16,15,26,26.30
2015,07,16,15,27,26.30
2015,07,16,15,28,26.30
2015,07,16,15,29,26.40
2015,07,16,15,32,26.40
2015,07,16,15,33,26.40
2015,07,16,15,34,26.40
2015,07,16,15,35,26.50
2015,07,16,15,37,26.40
2015,07,16,15,39,26.40
2015,07,16,15,40,26.40
2015,07,16,15,41,26.30
2015,07,16,15,42,26.20
2015,07,16,15,43,26.20
2015,07,16,15,44,26.20
2015,07,16,15,48,26.30
2015,07,16,15,49,26.30
2015,07,16,15,51,26.30
2015,07,16,15,54,26.20
2015,07,16,15,55,26.20
2015,07,16,15,57,26.20
2015,07,16,15,59,26.30
2015,07,16,16,00,26.30
2015,07,16,16,01,26.40
2015,07,16,16,02,26.40
2015,07,16,16,04,26.30
2015,07,16,16,06,26.30
2015,07,16,16,07,26.30
2015,07,16,16,09,26.30
2015,07,16,16,10,26.30
2015,07,16,16,16,26.40
2015,07,16,16,18,26.40
2015,07,16,16,20,26.50
2015,07,16,16,24,26.60
2015,07,16,16,25,26.60
2015,07,16,16,26,26.60
2015,07,16,16,27,26.50
2015,07,16,16,29,26.50
2015,07,16,16,30,26.60
2015,07,16,16,31,26.60
2015,07,16,16,33,26.70
2015,07,16,16,34,26.80
2015,07,16,16,36,26.80
2015,07,16,16,39,26.90
2015,07,16,16,40,26.90
2015,07,16,16,41,26.90
2015,07,16,16,43,26.80
2015,07,16,16,44,26.80
2015,07,16,16,45,26.70
2015,07,16,16,46,26.70
2015,07,16,16,47,26.70
2015,07,16,16,48,26.60
2015,07,16,16,51,26.60
2015,07,16,16,53,26.60
2015,07,16,16,54,26.50
2015,07,16,16,55,26.40
2015,07,16,16,56,26.40
2015,07,16,16,57,26.40
2015,07,16,16,58,26.40
2015,07,16,16,59,26.40
2015,07,16,17,00,26.40
2015,07,16,17,01,26.40
2015,07,16,17,02,26.40
2015,07,16,17,03,26.40
2015,07,16,17,04,26.40
2015,07,16,17,05,26.40
2015,07,16,17,07,26.30
2015,07,16,17,08,26.30
2015,07,16,17,10,26.20
2015,07,16,17,11,26.20
2015,07,16,17,12,26.20
2015,07,16,17,13,26.10
2015,07,16,17,14,26.10
2015,07,16,17,15,26.10
2015,07,16,17,16,26.10
2015,07,16,17,18,26.10
2015,07,16,17,20,26.10
2015,07,16,17,21,26.10
2015,07,16,17,22,26.10
2015,07,16,17,25,26.00
2015,07,16,17,26,26.10
2015,07,16,17,29,26.10
2015,07,16,17,31,26.10
2015,07,16,17,32,26.20
2015,07,16,17,33,26.20
2015,07,16,17,34,26.20
2015,07,16,17,36,26.20
2015,07,16,17,37,26.20
2015,07,16,17,38,26.30
2015,07,16,17,44,26.30
2015,07,16,17,45,26.40
2015,07,16,17,46,26.40
2015,07,16,17,47,26.40
2015,07,16,17,48,26.40
2015,07,16,17,49,26.30
2015,07,16,17,50,26.30
2015,07,16,17,52,26.20
2015,07,16,17,53,26.10
2015,07,16,17,54,26.10
2015,07,16,17,55,26.10
2015,07,16,18,00,25.90
2015,07,16,18,01,25.90
2015,07,16,18,02,25.90
2015,07,16,18,03,25.90
2015,07,16,18,04,25.90
2015,07,16,18,05,25.90
2015,07,16,18,06,25.90
2015,07,16,18,08,25.90
2015,07,16,18,09,25.90
2015,07,16,18,11,25.90
2015,07,16,18,12,25.90
2015,07,16,18,13,25.90
2015,07,16,18,14,25.90
2015,07,16,18,15,25.90
2015,07,16,18,19,26.10
2015,07,16,18,20,26.10
2015,07,16,18,21,26.10
2015,07,16,18,22,26.20
2015,07,16,18,23,26.20
2015,07,16,18,24,26.10
2015,07,16,18,26,26.10
2015,07,16,18,27,26.00
2015,07,16,18,28,26.00
2015,07,16,18,29,25.90
2015,07,16,18,30,25.90
2015,07,16,18,31,25.90
2015,07,16,18,32,25.90
2015,07,16,18,33,25.80
2015,07,16,18,34,25.80
2015,07,16,18,35,25.80
2015,07,16,18,36,25.80
2015,07,16,18,39,25.70
2015,07,16,18,40,25.60
2015,07,16,18,41,25.60
2015,07,16,18,42,25.60
2015,07,16,18,44,25.60
2015,07,16,18,46,25.50
2015,07,16,18,47,25.50
2015,07,16,18,48,25.40
2015,07,16,18,49,25.40
2015,07,16,18,50,25.40
2015,07,16,18,56,25.30
2015,07,16,18,57,25.30
2015,07,16,18,58,25.30
2015,07,16,18,59,25.30
2015,07,16,19,00,25.30
2015,07,16,19,02,25.30
2015,07,16,19,03,25.30
2015,07,16,19,05,25.30
2015,07,16,19,06,25.30
2015,07,16,19,07,25.30
2015,07,16,19,08,25.30
2015,07,16,19,09,25.30
2015,07,16,19,10,25.30
2015,07,16,19,17,25.20
2015,07,16,19,18,25.20
2015,07,16,19,19,25.20
2015,07,16,19,21,25.20
2015,07,16,19,22,25.20
2015,07,16,19,23,25.10
2015,07,16,19,30,24.90
2015,07,16,19,31,24.90
2015,07,16,19,32,24.80
2015,07,16,19,33,24.80
2015,07,16,19,34,24.80
2015,07,16,19,36,24.70
2015,07,16,19,38,24.60
2015,07,16,19,39,24.60
2015,07,16,19,41,24.50
2015,07,16,19,44,24.40
2015,07,16,19,45,24.40
2015,07,16,19,48,24.30
2015,07,16,19,49,24.30
2015,07,16,19,50,24.30
2015,07,16,19,52,24.30
2015,07,16,19,53,24.20
2015,07,16,19,54,24.20
2015,07,16,19,55,24.20
2015,07,16,19,56,24.10
2015,07,16,19,57,24.10
2015,07,16,19,59,24.10
2015,07,16,20,00,24.00
2015,07,16,20,02,24.00
2015,07,16,20,05,23.90
2015,07,16,20,06,23.90
2015,07,16,20,07,23.90
2015,07,16,20,10,23.90
2015,07,16,20,13,23.80
2015,07,16,20,14,23.80
2015,07,16,20,15,23.80
2015,07,16,20,17,23.70
2015,07,16,20,19,23.60
2015,07,16,20,20,23.60
2015,07,16,20,21,23.60
2015,07,16,20,22,23.60
2015,07,16,20,23,23.50
2015,07,16,20,24,23.50
2015,07,16,20,25,23.40
2015,07,16,20,26,23.40
2015,07,16,20,27,23.40
2015,07,16,20,29,23.40
2015,07,16,20,30,23.30
2015,07,16,20,32,23.30
2015,07,16,20,33,23.30
2015,07,16,20,34,23.30
2015,07,16,20,35,23.30
2015,07,16,20,38,23.20
2015,07,16,20,39,23.20
2015,07,16,20,40,23.20
2015,07,16,20,41,23.20
2015,07,16,20,42,23.10
2015,07,16,20,43,23.10
2015,07,16,20,44,23.10
2015,07,16,20,46,23.00
2015,07,16,20,47,22.90
2015,07,16,20,49,22.90
2015,07,16,20,51,22.80
2015,07,16,20,52,22.80
2015,07,16,20,53,22.80
2015,07,16,20,55,22.80
2015,07,16,20,57,22.70
2015,07,16,20,58,22.70
2015,07,16,21,00,22.70
2015,07,16,21,01,22.60
2015,07,16,21,02,22.60
2015,07,16,21,05,22.50
2015,07,16,21,06,22.40
2015,07,16,21,07,22.40
2015,07,16,21,08,22.40
2015,07,16,21,09,22.40
2015,07,16,21,13,22.30
2015,07,16,21,14,22.30
2015,07,16,21,15,22.30
2015,07,16,21,16,22.20
2015,07,16,21,17,22.20
2015,07,16,21,18,22.20
2015,07,16,21,20,22.20
2015,07,16,21,21,22.20
2015,07,16,21,23,22.10
2015,07,16,21,25,22.10
2015,07,16,21,28,22.00
2015,07,16,21,31,22.00
2015,07,16,21,32,22.00
2015,07,16,21,34,21.90
2015,07,16,21,35,21.90
2015,07,16,21,38,21.90
2015,07,16,21,39,21.90
2015,07,16,21,40,21.90
2015,07,16,21,42,21.90
2015,07,16,21,45,21.90
2015,07,16,21,46,21.90
2015,07,16,21,47,21.80
2015,07,16,21,48,21.80
2015,07,16,21,50,21.80
2015,07,16,21,51,21.80
2015,07,16,21,52,21.80
2015,07,16,21,55,21.80
2015,07,16,21,56,21.70
2015,07,16,21,57,21.70
2015,07,16,21,59,21.70
2015,07,16,22,01,21.60
2015,07,16,22,02,21.60
2015,07,16,22,03,21.60
2015,07,16,22,04,21.60
2015,07,16,22,05,21.60
2015,07,16,22,07,21.60
2015,07,16,22,09,21.50
2015,07,16,22,11,21.40
2015,07,16,22,12,21.40
2015,07,16,22,13,21.40
2015,07,16,22,14,21.30
2015,07,16,22,16,21.30
2015,07,16,22,17,21.30
2015,07,16,22,18,21.30
2015,07,16,22,19,21.30
2015,07,16,22,20,21.20
2015,07,16,22,21,21.20
2015,07,16,22,22,21.20
2015,07,16,22,23,21.20
2015,07,16,22,24,21.20
2015,07,16,22,25,21.20
2015,07,16,22,27,21.10
2015,07,16,22,28,21.10
2015,07,16,22,29,21.10
2015,07,16,22,32,21.00
2015,07,16,22,33,21.00
2015,07,16,22,34,21.00
2015,07,16,22,35,21.00
2015,07,16,22,36,21.00
2015,07,16,22,38,20.90
2015,07,16,22,39,20.90
2015,07,16,22,40,20.90
2015,07,16,22,41,20.90